Probability
15 11 8 8 11 13 14 13 12 12 12 14 12 9 8 9 11 10 8 7 6 5 3 3 4 4 4 3 2 2 1 1 1 3 4 5 6 7 7 8 7 5 4
20 16 12 11 13 15 15 15 15 14 14 14 12 8 8 10 12 13 11 8 8 5 3 3 4 5 4 3 2 1 1 1 0 2 4 4 4 6 7 8 8 6 5
24 23 19 17 18 17 16 17 18 17 15 13 11 8 7 8 11 13 12 10 8 6 5 5 6 6 4 3 3 2 2 1 0 1 3 4 4 4 5 7 8 8 6
25 27 25 23 21 17 17 19 21 20 16 13 11 10 8 7 8 10 12 11 8 7 7 7 7 7 5 4 4 4 4 3 2 2 2 5 6 4 3 5 8 9 8
26 30 29 25 21 17 19 25 28 26 21 17 15 14 11 9 8 9 11 11 10 9 9 8 8 9 7 6 6 7 8 6 5 4 4 6 7 6 4 4 7 9 9
30 34 34 29 24 20 23 31 36 34 27 22 21 20 17 14 12 12 12 12 11 12 11 9 10 11 10 7 7 9 10 8 6 6 6 6 6 6 5 4 5 6 6
35 37 37 34 29 25 26 34 41 40 32 25 24 24 21 18 16 15 15 13 12 13 13 12 13 13 10 7 6 7 7 7 7 7 6 5 4 4 4 4 3 2 3
34 35 36 34 30 25 25 34 43 43 35 29 27 25 22 19 18 18 18 16 14 13 15 16 16 14 10 6 5 5 6 7 8 7 6 4 3 3 3 4 3 2 2
31 32 33 32 29 26 29 38 46 46 40 34 30 26 23 21 20 20 19 18 17 16 18 19 18 14 10 6 5 6 6 8 9 9 7 6 4 3 3 4 5 3 3
31 31 32 32 32 32 36 43 49 50 44 38 33 29 29 29 27 25 24 24 23 22 22 21 18 14 10 8 8 7 8 9 10 10 9 8 7 6 6 7 8 8 8
32 31 31 32 34 37 42 48 52 52 48 42 37 34 35 36 34 31 31 31 29 26 24 22 18 14 12 11 10 8 8 9 9 8 9 10 11 10 9 9 11 14 16
30 30 29 30 34 40 45 50 54 54 50 45 40 37 38 38 36 35 35 35 31 26 24 23 21 16 13 14 14 11 9 9 10 10 10 12 14 14 13 13 14 16 17
33 33 34 35 40 46 50 52 54 52 49 46 42 40 40 39 37 36 36 34 30 26 25 26 24 20 17 18 18 15 12 11 13 15 14 14 16 18 18 17 16 15 15
41 44 47 50 53 58 58 54 52 50 49 49 46 43 42 40 38 37 34 30 27 26 27 27 27 25 22 21 21 19 17 16 18 21 21 18 17 19 19 19 18 18 18
47 51 57 62 66 69 66 59 53 52 53 53 50 46 44 42 42 40 36 29 24 24 27 29 30 28 24 19 19 20 21 22 24 27 29 25 20 18 17 17 18 20 22
47 51 58 63 69 71 69 63 56 54 54 54 53 52 50 48 46 43 37 31 26 26 28 31 32 29 22 15 13 17 22 27 31 33 34 30 23 19 17 14 14 16 18
47 50 54 60 65 67 66 63 58 53 52 53 55 57 55 52 47 42 37 34 33 33 33 34 34 29 22 13 8 11 21 30 35 36 36 31 24 21 19 15 13 12 12
51 51 53 57 61 62 62 60 56 53 51 52 54 56 55 52 47 43 39 39 40 39 37 35 33 29 22 13 7 8 17 28 34 35 36 33 26 21 19 18 17 16 14
52 52 52 53 57 59 58 57 54 51 51 52 52 52 52 52 50 47 44 44 43 39 35 35 33 29 22 13 7 8 16 24 30 33 33 31 26 20 16 17 21 22 20
49 51 51 54 57 58 58 56 53 50 49 49 49 48 49 52 52 50 48 46 44 39 34 34 35 31 24 15 8 8 16 23 26 29 28 24 20 15 12 15 20 22 21
48 50 53 57 59 59 59 58 56 52 49 46 45 45 47 48 49 50 49 48 46 41 36 34 35 32 25 18 9 6 12 19 22 23 23 20 14 8 6 10 14 16 15
49 51 55 58 58 57 58 58 57 54 50 46 44 44 44 43 44 46 47 47 45 42 37 33 33 32 27 21 12 5 5 11 16 19 19 15 8 2 1 4 7 7 6
48 49 52 54 53 53 54 55 54 52 51 48 46 45 44 43 42 42 42 42 43 41 36 33 32 32 32 25 15 7 2 4 9 12 12 9 3 0 0 1 2 2 3
45 47 48 50 49 47 48 49 48 49 50 49 48 47 45 45 44 41 37 36 38 38 36 33 30 30 32 26 17 11 6 4 5 6 7 6 3 2 3 4 4 3 4
45 45 46 47 45 42 42 43 44 46 49 49 46 44 42 43 44 40 32 27 26 26 25 24 22 22 22 18 12 11 9 6 4 5 8 9 7 5 7 8 9 9 9
46 44 43 43 42 39 39 42 43 44 48 47 42 38 37 40 42 37 27 19 15 13 11 12 14 13 12 9 7 7 7 5 4 6 9 11 9 8 8 10 11 12 13
Wind_Speed
13 12 10 11 11 9 7 5 5 4 2 2 2 2 1 1 2 3 3 2 2 2 1 1 2 1 1 1 1 1 1 1 1 1 0 0 1 1 1 1 1 2 3
13 12 12 11 11 9 8 7 6 5 3 2 2 2 2 1 2 3 3 2 2 1 2 2 1 2 2 2 1 1 0 0 1 1 1 0 1 1 2 1 1 1 1
15 14 12 11 11 10 9 7 6 5 4 3 2 2 2 1 2 3 2 2 2 2 2 2 1 1 2 2 1 1 1 1 1 1 1 1 1 0 0 1 2 2 1
15 14 13 12 11 11 10 7 7 5 4 3 2 3 3 2 2 2 2 2 3 2 2 2 2 1 1 2 2 2 1 1 1 1 1 1 2 2 0 1 1 2 2
16 16 15 13 12 12 11 9 7 6 5 4 3 2 2 2 2 2 3 2 3 3 2 2 1 1 1 1 0 1 0 0 1 1 1 1 1 2 2 1 1 1 1
15 15 15 13 11 11 11 10 9 7 6 5 4 3 2 2 2 2 3 3 2 2 3 3 2 2 1 1 1 0 1 1 1 1 1 0 1 1 1 1 2 2 1
14 15 15 14 12 11 11 11 10 8 7 6 5 4 3 3 2 2 3 3 2 2 2 3 2 2 1 1 1 1 1 1 0 1 1 1 1 0 0 1 1 1 1
13 15 15 14 12 12 11 11 11 9 8 6 5 4 4 3 2 2 2 2 2 2 3 3 3 2 2 1 1 1 2 1 1 1 1 2 1 1 1 0 1 1 1
12 13 15 15 13 12 11 11 11 9 8 7 6 4 4 3 2 2 2 1 1 2 3 3 3 3 2 1 1 1 1 1 1 1 1 1 1 1 1 1 1 1 1
12 12 12 14 13 12 10 10 10 9 7 7 6 6 4 3 2 2 1 1 1 1 2 3 3 2 2 1 1 1 1 1 1 1 0 1 1 1 1 1 1 1 1
11 11 11 11 11 11 12 10 10 9 7 6 5 4 4 4 3 2 1 2 2 2 1 2 2 2 2 1 1 1 1 1 1 1 1 1 1 1 1 1 1 1 1
9 9 10 10 10 11 11 10 9 9 8 6 5 4 4 3 3 3 2 2 2 2 2 2 2 2 2 1 1 1 1 1 1 1 1 1 1 1 1 1 1 1 0
7 8 8 8 7 8 9 9 9 9 9 7 7 5 5 4 3 3 3 2 2 2 2 2 2 2 1 1 1 1 1 1 1 1 1 1 1 1 1 1 1 1 1
6 7 7 6 6 6 7 8 8 8 8 8 7 6 5 4 4 3 3 3 2 2 2 2 2 2 2 1 1 1 1 1 1 1 1 1 1 1 2 1 1 1 1
4 6 6 6 6 6 6 6 6 6 6 7 7 6 5 4 4 4 3 3 3 3 2 2 2 2 2 1 1 2 2 1 1 1 0 0 0 0 1 1 1 1 1
4 4 6 7 6 6 6 6 6 6 5 6 6 6 5 5 4 4 4 3 2 2 2 2 2 2 2 1 1 1 2 2 2 1 1 2 2 2 2 1 0 0 1
5 4 5 6 5 5 6 6 5 6 5 5 5 6 5 5 4 4 4 4 3 3 3 3 2 2 2 0 0 1 2 2 1 2 2 2 1 2 2 2 3 2 2
4 4 5 6 6 6 5 5 6 6 6 5 5 5 4 4 4 3 3 3 3 3 2 3 3 3 3 2 1 2 3 3 2 2 2 2 2 2 1 2 3 3 2
4 4 5 6 5 5 5 5 6 6 5 5 4 5 4 4 4 3 3 3 3 3 3 3 3 3 3 4 3 3 3 3 3 3 3 2 2 2 2 3 3 3 3
3 4 4 5 6 5 5 5 6 6 5 4 4 4 4 3 3 3 3 2 2 3 3 3 3 4 4 5 5 4 3 3 3 3 3 4 3 3 3 3 3 4 3
4 4 5 5 5 5 4 4 4 5 4 4 4 3 3 3 3 3 2 2 2 3 3 3 3 4 5 6 8 7 4 3 3 3 3 3 5 5 5 5 4 5 4
3 4 4 4 4 4 4 4 3 4 4 4 4 3 3 3 3 2 2 3 3 4 4 4 4 4 4 6 8 9 8 6 5 4 3 2 3 6 7 6 5 5 4
2 3 4 4 4 3 3 4 3 3 4 4 4 3 3 2 2 3 4 4 4 4 4 4 4 4 4 5 8 9 9 9 5 4 3 3 5 6 6 7 7 5 4
2 3 3 3 3 3 3 3 3 3 3 3 3 3 3 3 3 3 4 4 3 4 3 3 3 3 2 2 3 3 4 5 5 4 4 5 6 6 5 5 5 5 5
1 1 2 3 3 3 3 3 3 3 3 3 3 3 4 3 2 3 3 3 2 3 3 3 2 2 2 1 1 1 2 2 2 2 3 3 3 3 4 4 4 4 4
3 3 3 3 3 3 3 3 3 3 3 3 3 3 3 3 3 3 2 3 3 4 4 3 3 2 2 2 3 3 3 3 2 2 4 4 4 4 4 4 4 3 4
Wind_Direction
162 160 160 151 149 148 151 149 145 141 148 144 148 139 144 138 103 111 111 122 112 102 96 94 130 139 126 130 132 135 188 198 163 167 248 278 139 136 180 149 161 150 149
163 162 165 160 158 156 157 156 155 158 169 151 158 160 152 150 113 94 106 106 96 103 124 113 154 126 139 143 136 100 305 256 166 168 137 82 353 288 204 165 159 148 164
167 166 169 165 163 163 166 166 162 160 173 164 173 150 122 119 106 115 129 122 119 112 74 112 103 112 137 141 171 158 201 242 270 237 162 155 187 255 305 200 148 154 170
169 168 169 169 168 169 167 159 156 160 167 169 183 172 162 158 145 144 139 151 145 134 114 107 97 96 107 127 200 164 234 230 264 261 251 195 157 167 194 310 166 176 176
173 171 172 171 173 173 167 163 156 161 166 175 178 183 167 165 152 149 143 160 154 145 134 124 125 122 117 141 194 111 220 280 293 285 272 276 215 217 180 206 211 207 187
173 169 168 165 172 172 167 162 158 164 168 176 176 179 190 177 155 153 157 172 162 159 161 149 147 140 153 153 138 172 144 70 350 306 303 296 253 230 200 198 197 194 202
169 167 166 166 170 171 169 162 158 166 174 179 175 176 191 197 176 184 179 183 166 163 164 162 151 153 169 157 165 172 157 137 157 289 314 317 293 291 237 183 201 199 200
171 169 168 167 171 174 170 162 160 168 177 179 176 177 186 200 190 201 202 181 178 160 157 157 154 156 177 182 184 169 167 155 220 241 267 295 302 310 288 231 200 224 214
165 165 165 167 171 174 170 165 160 169 178 179 172 177 175 192 197 191 204 192 166 163 140 154 155 155 168 172 179 184 170 157 203 244 241 271 276 281 288 268 200 200 241
162 163 165 167 168 169 164 160 158 166 171 172 178 174 174 181 174 182 189 155 134 128 135 144 145 151 151 160 213 195 188 200 205 214 245 282 290 301 295 286 279 247 222
160 160 161 160 162 165 164 164 159 163 170 171 173 167 168 179 171 181 184 144 139 144 148 136 141 155 154 161 195 225 196 227 246 266 235 243 278 313 304 295 284 258 167
149 150 152 154 160 161 161 159 162 166 167 164 163 165 166 165 169 174 171 148 152 157 153 153 158 179 162 164 178 221 228 234 242 253 258 258 255 252 295 308 303 304 244
140 141 143 146 150 152 153 155 163 166 166 163 165 168 169 163 162 160 150 144 149 155 159 157 168 175 164 175 200 217 238 241 243 237 245 258 269 268 287 290 293 288 286
133 135 133 132 134 135 136 147 158 158 160 161 164 164 168 167 160 150 149 159 168 172 172 175 182 173 159 173 218 223 230 243 250 225 240 272 293 295 280 270 303 310 303
131 133 132 128 132 131 136 143 148 150 156 157 161 162 166 161 157 157 160 165 176 180 176 183 180 177 168 194 221 266 228 237 250 238 220 239 125 35 295 288 317 290 274
142 140 134 135 138 138 142 147 151 150 152 157 160 159 163 162 162 165 163 163 167 172 180 186 189 194 195 161 174 237 269 243 224 234 224 217 206 190 189 190 213 319 273
140 137 138 140 140 142 141 146 149 149 150 156 157 157 162 163 166 176 168 176 178 183 196 196 182 165 163 167 265 228 250 254 224 230 246 261 242 190 215 219 219 232 247
124 134 144 140 142 144 146 147 152 150 154 160 162 159 165 168 166 174 176 186 188 190 204 206 185 182 193 192 212 275 256 252 244 233 231 240 241 259 266 250 237 234 239
105 121 132 140 136 138 140 147 150 148 158 159 159 159 162 164 166 171 182 188 193 197 210 205 196 196 198 202 204 231 255 250 249 241 236 228 225 234 242 244 249 252 252
99 111 116 122 124 127 136 143 150 152 157 153 150 150 154 164 174 177 182 191 198 210 218 210 203 201 201 198 201 217 248 254 249 236 227 217 217 218 226 237 239 245 249
96 102 112 118 119 123 133 140 146 150 145 141 139 145 146 163 178 166 170 189 211 220 226 224 219 205 202 197 204 204 234 255 264 251 240 222 196 213 230 243 247 247 256
96 113 105 108 114 122 132 136 140 135 135 142 147 156 163 188 178 167 191 204 215 221 223 226 234 228 205 198 204 208 224 251 264 264 261 233 219 232 239 241 244 248 253
108 115 113 111 116 127 136 140 138 143 148 150 158 169 179 191 182 193 211 220 221 226 232 225 227 233 215 201 208 209 224 241 253 273 291 279 249 246 242 238 234 234 239
122 128 127 126 127 136 142 138 139 145 151 157 169 180 191 204 198 211 221 222 226 230 234 234 239 241 235 206 192 207 223 240 250 271 283 269 248 243 242 235 224 223 232
100 116 127 132 138 138 135 139 139 141 156 169 180 199 215 209 205 221 233 237 231 230 234 251 260 272 264 241 171 219 235 246 251 274 266 261 244 234 233 230 225 222 224
117 119 121 127 132 139 138 137 147 161 176 196 205 219 225 209 211 220 220 224 228 221 215 222 238 247 220 205 205 219 231 232 213 225 253 256 253 247 244 244 240 232 231